Theta_e
320 320 321 321 320 321 322 322 321 321 320 320 320 320 320 317 316 317 318 319 320 320 321 321 322 323 323 324 325 325 326 326 326 326 325 326 326 326 326 327 327 326 326 327 326 326 329 332 330 328 328 326 325 323 321 319 318 317 318 317 315 313 316
320 320 320 320 320 321 321 321 321 319 318 316 316 317 317 315 313 314 316 318 318 319 320 320 320 321 321 322 323 323 323 323 325 325 324 323 323 323 325 326 326 326 326 326 326 325 326 330 331 329 326 326 327 325 323 321 318 317 317 318 316 313 314
320 320 320 320 322 322 322 321 319 316 315 314 313 314 314 314 312 312 313 314 315 315 317 319 320 320 320 320 320 320 322 321 321 321 319 318 317 317 320 324 325 325 325 325 324 324 324 324 327 324 318 318 321 320 320 319 318 317 315 316 316 313 311
319 319 320 321 322 321 320 319 317 315 315 315 314 314 313 312 312 312 313 314 313 313 314 316 317 317 317 317 316 316 317 318 319 318 316 315 315 314 316 319 320 319 318 318 317 318 318 318 321 320 314 314 315 314 315 315 314 314 313 313 314 313 312
318 318 320 322 321 319 318 317 316 315 315 315 315 314 313 312 312 313 313 313 313 314 315 315 315 315 315 314 313 312 311 311 313 314 313 312 313 313 314 314 315 314 313 313 313 314 315 315 316 317 314 314 315 314 313 313 314 314 313 313 313 314 314
318 318 320 321 320 318 318 318 317 316 315 316 314 312 313 313 313 312 313 313 314 314 314 314 313 314 313 312 311 310 306 304 306 307 307 309 311 312 313 313 313 312 311 312 313 313 314 314 314 314 314 313 314 314 313 313 313 314 314 314 315 315 316
318 318 319 319 319 318 319 318 317 316 314 315 314 312 313 314 314 312 312 313 313 313 313 312 312 312 311 310 310 309 306 303 303 303 303 305 308 310 311 311 310 310 310 311 311 312 313 313 313 312 313 314 313 313 313 313 313 314 314 314 314 315 315
318 318 318 318 318 319 319 319 318 316 315 315 314 314 314 315 315 313 310 310 311 313 314 314 313 313 313 313 312 310 307 304 303 302 302 303 307 310 310 309 308 307 309 310 310 310 311 311 312 312 313 315 317 316 313 313 312 312 313 313 313 314 313
318 318 319 318 319 320 319 319 318 317 317 316 315 314 315 317 315 313 310 308 309 311 314 314 313 314 313 311 311 310 309 310 308 305 305 306 308 310 311 310 309 307 307 309 310 308 308 310 311 311 312 312 316 317 317 317 316 312 311 312 312 313 312
319 318 319 319 319 319 319 319 319 318 318 318 317 315 316 317 315 311 309 308 307 308 312 313 313 312 311 309 309 311 313 314 313 310 309 308 308 309 310 310 310 308 306 307 308 307 307 309 310 310 310 310 312 315 317 319 318 313 311 311 312 311 311
319 319 319 320 320 320 319 319 319 319 318 318 319 317 315 317 316 312 308 308 307 308 312 313 311 311 312 310 310 311 312 313 312 311 311 310 308 308 309 309 310 309 306 307 308 309 308 308 308 308 308 308 309 311 312 315 317 314 311 311 310 310 309
319 320 319 319 320 320 318 319 320 320 319 319 319 318 317 317 317 314 311 310 308 309 313 314 312 311 313 312 311 311 310 309 310 310 310 310 307 307 308 308 309 309 307 306 308 310 309 308 308 308 308 308 308 309 309 311 314 313 310 309 309 308 308
318 319 320 318 319 320 318 318 319 319 319 320 319 319 318 318 317 316 315 314 311 310 312 314 312 311 313 312 311 312 310 309 311 310 308 308 307 306 307 308 309 308 306 305 308 310 310 308 308 309 309 309 309 310 309 309 311 311 309 308 308 308 308
318 319 321 320 319 320 320 318 318 319 320 320 320 319 319 318 318 317 316 317 315 312 311 313 313 311 313 313 312 312 311 310 313 312 308 308 308 308 308 309 309 309 307 305 306 308 308 307 308 308 309 309 309 309 310 309 309 309 307 307 308 308 309
322 321 322 321 320 320 321 319 318 320 321 320 320 320 320 319 318 317 317 317 318 316 313 313 312 311 312 313 312 312 312 311 313 313 310 310 309 308 308 309 309 309 309 306 304 305 307 307 307 308 307 308 307 307 307 308 308 307 307 308 308 308 308
323 323 322 321 321 321 322 321 319 319 320 321 321 320 320 320 319 318 318 318 318 318 317 315 314 312 312 314 313 312 312 312 312 313 312 311 310 309 308 307 307 308 309 308 305 305 307 307 307 307 307 306 306 306 306 306 307 307 307 307 307 306 306
323 324 323 323 322 321 321 320 320 319 319 321 321 321 320 320 320 320 319 319 319 319 319 317 316 314 313 313 314 313 313 313 312 311 312 312 311 310 309 309 308 308 309 309 306 306 307 307 307 307 307 306 306 306 306 306 306 306 306 305 306 306 305
324 325 325 325 324 323 322 320 320 319 318 319 320 321 321 321 321 320 320 320 320 320 320 319 318 317 315 314 314 314 314 314 312 311 311 312 311 310 311 310 309 308 309 308 307 306 307 307 307 307 306 306 306 305 305 304 304 304 304 303 304 304 304
325 325 325 325 325 324 323 322 320 319 319 318 318 319 321 321 321 320 320 320 320 320 320 320 319 318 317 315 314 315 314 314 313 311 311 312 311 310 310 310 309 309 308 308 307 307 307 307 307 306 305 305 304 304 303 303 303 303 303 302 302 303 303
323 324 325 325 325 325 324 323 322 320 319 318 317 318 319 320 319 319 319 319 319 320 320 320 319 319 318 317 315 315 315 314 313 312 311 311 311 311 310 309 309 308 308 307 306 306 306 306 306 305 305 304 303 302 301 301 301 301 301 301 300 300 300
320 321 322 322 323 323 323 322 322 321 319 318 318 318 318 318 317 317 317 316 317 318 320 320 320 319 319 317 316 315 315 314 314 313 312 312 311 311 310 309 308 307 307 306 306 306 305 305 305 304 302 300 298 298 298 298 298 298 298 297 297 296 296
320 320 320 320 320 321 321 321 321 321 320 320 319 319 318 318 318 317 316 316 316 317 319 320 320 320 319 318 317 316 315 315 314 313 312 312 311 311 310 309 308 307 306 306 306 305 304 304 304 302 299 296 294 294 294 295 296 296 296 296 296 296 296
317 317 318 318 318 319 319 319 319 318 319 319 319 320 320 320 319 318 318 318 318 319 320 320 320 320 319 319 317 316 315 315 314 313 313 312 311 310 309 308 307 306 305 305 304 304 303 303 303 300 298 296 295 294 295 296 296 297 296 296 296 297 297
314 316 317 317 316 316 316 317 318 318 318 318 318 319 319 319 319 320 320 320 320 320 321 321 320 319 319 319 318 317 316 315 314 314 313 312 311 311 309 307 306 305 304 304 303 303 303 302 301 300 299 298 298 298 298 298 298 297 297 297 297 297 297
313 314 315 316 317 317 317 319 319 320 320 320 320 320 320 320 320 321 321 322 322 322 322 322 322 321 320 320 319 318 317 316 315 314 313 312 312 310 308 306 305 304 303 303 303 303 302 301 301 300 299 299 299 299 298 298 298 297 297 297 297 297 297
310 311 312 313 314 314 315 316 317 317 319 320 321 321 321 321 322 322 322 322 322 322 322 323 323 322 321 320 319 318 317 316 315 314 313 312 311 309 307 305 304 303 303 303 303 303 302 301 301 300 300 299 299 299 298 298 298 298 298 297 297 297 297
310 310 310 310 310 311 311 311 313 315 317 318 319 320 321 321 321 320 320 320 319 320 321 321 322 322 321 320 319 317 316 315 314 313 312 310 308 307 305 304 304 303 303 303 303 302 302 301 301 300 300 300 300 299 299 298 298 297 297 297 297 297 297
310 310 310 309 309 310 310 310 311 312 315 316 316 317 319 319 319 318 317 316 317 318 319 319 319 319 320 318 317 316 314 313 312 310 309 307 305 305 304 303 303 303 302 302 302 302 301 301 301 301 300 300 300 299 298 298 298 297 297 297 297 297 297
310 310 309 309 309 309 309 310 310 311 312 315 315 315 316 317 317 318 317 316 316 317 317 317 317 316 316 316 315 313 311 309 308 307 306 305 304 304 303 303 302 302 302 301 301 301 301 301 301 300 300 300 299 298 298 298 297 297 297 297 297 297 297
310 309 309 309 309 309 309 309 309 310 312 313 315 315 315 315 316 316 318 318 317 317 316 315 314 313 312 312 312 310 308 307 306 305 305 304 303 303 303 302 302 302 302 301 301 301 301 301 301 300 299 299 298 298 298 297 297 297 297 297 297 297 297
309 309 309 309 308 308 309 308 309 309 310 312 313 314 315 315 314 315 316 317 317 317 315 314 312 310 309 310 309 308 306 305 304 303 303 303 302 303 302 302 302 302 301 301 301 301 301 301 300 299 298 297 297 297 297 296 296 296 296 295 295 295 295
309 309 309 309 308 309 309 308 308 308 309 311 312 313 314 314 314 314 315 315 315 315 314 312 310 309 308 308 308 307 305 304 303 302 302 302 302 302 302 302 302 301 301 301 300 300 299 298 298 297 296 296 295 295 295 294 294 294 293 293 293 292 292
308 308 308 307 308 309 309 309 309 308 309 309 311 312 313 313 313 314 314 314 314 314 314 312 309 307 307 307 306 306 304 303 302 302 301 301 300 301 301 301 301 300 300 299 298 297 297 296 296 295 295 294 294 293 293 293 292 292 292 291 291 291 291
306 306 306 307 308 310 309 309 309 309 308 308 309 312 313 313 313 313 312 313 313 313 312 311 308 307 306 306 305 304 304 303 302 302 301 299 298 298 298 298 298 298 298 297 297 296 296 296 295 294 294 293 293 292 292 292 292 291 291 291 291 291 291
305 305 306 307 309 310 310 310 309 308 308 308 310 312 313 312 311 310 310 310 311 310 310 309 308 307 305 304 304 303 302 302 301 300 299 298 297 296 297 297 297 297 296 296 296 296 295 294 294 293 293 293 292 292 292 292 292 292 292 292 292 292 292
305 305 305 306 307 308 309 309 308 308 308 309 311 312 311 310 309 307 307 307 308 308 307 307 306 305 304 302 302 301 300 299 298 298 297 296 295 295 296 297 296 296 296 296 295 294 294 294 293 293 293 292 292 292 292 292 292 292 292 292 292 292 292
305 304 304 305 305 306 307 307 308 309 309 310 312 311 309 308 306 304 303 304 305 306 305 304 303 301 300 299 299 298 297 296 295 295 294 293 293 294 295 296 296 296 296 295 294 293 293 293 293 293 293 292 292 292 292 292 292 292 292 292 292 292 292
Wind_Speed
22 23 23 21 20 20 20 18 17 15 13 12 11 12 13 13 12 12 12 12 13 14 16 17 16 15 14 13 12 11 10 8 7 8 9 7 4 4 5 6 5 4 3 3 3 2 1 0 2 2 3 4 5 6 6 5 5 7 8 7 8 9 7
24 24 22 20 20 21 21 19 17 15 14 13 12 12 13 12 13 14 14 12 11 10 12 14 14 14 15 15 14 13 14 13 11 11 12 9 6 4 3 4 5 5 3 1 2 4 2 1 1 3 2 1 4 5 5 6 5 6 9 9 9 9 9
26 24 21 20 21 21 21 19 17 16 16 15 14 14 13 12 13 15 14 12 10 9 9 10 12 13 13 13 13 13 14 15 14 14 13 12 10 8 6 5 5 4 3 2 0 2 2 1 1 3 5 5 4 4 3 5 6 7 8 9 10 9 9
27 24 23 22 22 22 20 19 18 18 17 15 14 14 13 12 13 14 15 14 13 12 12 11 12 12 12 12 12 11 11 12 13 13 12 12 12 12 12 10 9 8 7 6 6 6 5 3 1 3 7 10 8 7 8 9 8 7 9 10 11 10 9
27 26 25 25 24 21 20 20 19 18 17 14 13 13 13 13 14 15 15 14 13 13 13 13 12 12 11 11 10 10 10 10 10 9 9 9 10 12 12 11 10 9 8 8 7 8 8 6 4 3 6 9 8 9 13 11 9 8 9 10 11 11 10
28 27 27 25 22 21 21 22 20 18 17 15 13 13 14 14 13 14 14 13 13 13 12 12 11 11 10 10 11 11 11 11 10 9 8 9 10 10 10 9 7 6 6 7 6 6 6 5 7 5 5 7 5 8 12 12 11 10 11 13 16 17 12
29 26 27 25 22 23 23 21 19 17 17 15 13 14 14 13 10 11 12 12 13 13 12 10 10 11 10 11 12 11 12 12 11 11 10 10 10 10 9 8 6 5 6 5 4 4 4 5 7 6 4 5 4 6 9 10 11 10 11 14 17 19 19
29 26 26 25 23 25 23 20 18 16 15 14 12 12 13 12 10 9 9 12 13 13 12 10 9 10 10 10 10 10 11 11 11 11 11 11 11 11 9 7 6 6 5 5 4 4 4 3 5 5 5 4 3 4 5 8 10 8 9 13 13 15 18
29 26 25 25 23 24 23 19 18 17 15 14 13 12 12 11 9 8 8 10 11 12 12 11 10 8 8 8 8 9 10 9 8 9 10 10 10 10 9 6 6 7 6 5 5 5 4 4 4 5 7 7 4 3 3 5 6 4 9 14 12 13 18
28 26 25 25 24 23 23 20 19 19 17 16 14 14 13 11 9 7 8 9 9 11 12 11 10 7 6 7 8 8 8 6 5 6 7 8 8 8 8 5 4 6 5 6 7 8 7 7 6 6 6 8 6 4 2 3 4 4 8 15 12 12 18
26 26 24 24 24 25 23 21 21 21 19 18 16 15 14 12 10 8 9 9 9 11 11 9 9 8 6 6 7 7 6 5 5 4 4 4 5 5 6 6 4 4 5 6 8 8 8 8 7 5 4 5 5 4 2 2 3 4 10 16 14 15 20
23 24 24 24 24 25 24 21 21 22 21 20 18 16 16 14 11 10 9 9 10 11 11 8 8 9 7 6 7 7 6 6 6 5 3 2 2 3 4 6 4 2 3 4 4 4 5 6 6 5 4 3 3 3 4 3 2 4 11 17 18 20 22
22 22 23 25 23 24 25 22 21 21 22 21 19 17 16 14 13 11 10 10 10 11 12 10 10 10 9 8 8 8 7 7 7 5 4 3 2 2 3 3 2 2 3 2 1 2 2 4 5 6 6 4 3 3 5 4 3 7 13 16 18 21 22
23 22 22 25 24 23 24 23 21 20 21 21 20 18 16 14 13 12 12 12 11 11 13 13 12 13 12 11 11 11 9 8 8 7 5 4 4 3 1 0 2 5 4 2 1 1 1 3 4 6 7 6 5 4 6 7 6 8 14 16 17 19 19
19 18 19 24 24 22 22 22 22 21 22 23 21 18 16 15 13 12 12 13 12 12 12 14 15 15 14 13 13 13 12 11 11 10 8 7 7 6 4 4 4 5 5 5 4 2 1 3 4 5 5 3 4 5 5 7 8 8 12 16 16 16 16
17 15 17 20 21 19 19 20 22 23 23 22 21 19 17 15 14 14 14 15 15 14 13 14 15 16 16 16 15 15 14 13 13 13 12 11 10 8 7 6 5 5 6 7 5 3 2 4 4 5 5 3 4 6 6 8 10 9 11 13 14 15 17
15 13 14 16 17 16 16 17 19 22 22 20 17 16 16 16 16 16 17 18 18 17 16 17 17 17 17 18 17 17 17 16 15 15 15 15 13 11 10 9 8 7 8 8 6 3 3 5 5 4 5 5 5 7 8 9 9 9 10 13 15 16 17
16 14 13 12 12 13 14 14 16 19 21 19 16 13 14 17 17 17 17 18 20 21 20 19 20 20 19 20 20 19 19 19 17 16 16 16 14 13 13 13 10 9 9 9 7 5 5 7 6 5 5 6 7 8 9 9 9 10 11 13 16 17 17
17 17 16 15 13 11 10 10 12 15 18 20 17 13 13 16 17 15 14 13 16 21 23 22 22 22 22 22 22 21 21 22 19 17 17 16 14 13 13 12 10 10 10 9 8 8 8 8 8 8 7 7 8 9 9 9 10 11 12 13 15 16 17
8 10 12 14 14 14 12 9 9 13 16 19 19 16 15 15 15 14 14 13 14 18 22 24 24 25 25 24 24 23 24 23 20 19 18 17 15 14 13 12 11 10 10 9 9 9 10 10 9 8 8 8 8 9 10 10 10 11 13 15 16 17 18
4 5 6 8 9 11 13 11 11 13 16 18 20 20 19 19 19 19 19 21 21 20 20 23 25 27 27 27 26 25 25 24 21 20 19 18 16 15 14 13 11 10 10 11 11 11 11 11 10 9 9 11 11 11 10 10 11 11 13 15 17 19 20
10 8 8 8 8 9 10 11 12 14 15 17 18 19 19 19 20 21 21 22 25 24 23 22 23 25 27 27 28 27 26 25 23 21 20 18 16 15 14 13 13 12 12 13 13 13 13 12 11 11 13 14 12 10 10 10 10 11 13 15 17 18 19
11 10 10 10 10 10 10 10 10 11 12 13 14 15 15 16 18 19 19 20 22 24 25 25 24 24 24 25 26 26 26 26 24 23 22 20 18 16 14 14 14 13 13 13 13 13 13 13 13 14 14 12 10 9 9 8 9 10 12 13 15 16 17
10 10 10 9 9 10 10 9 8 8 9 10 11 12 13 14 16 18 19 20 22 23 24 25 25 25 25 24 23 24 25 26 26 25 24 22 21 19 17 15 14 13 14 14 14 14 14 14 15 15 12 9 8 8 8 8 9 10 11 12 14 15 16
9 10 10 8 8 9 9 8 8 8 8 9 9 10 11 13 13 13 14 16 18 19 20 21 22 23 24 24 24 24 24 26 26 26 25 24 23 21 19 16 14 13 14 14 15 16 15 16 16 15 12 10 9 9 9 9 10 10 11 13 16 17 18
9 9 8 8 8 7 6 7 7 8 9 9 9 11 12 11 10 9 10 12 13 15 17 19 20 20 22 23 24 24 24 26 28 27 26 25 23 20 17 15 14 14 14 15 15 15 15 15 14 13 12 12 11 11 10 11 11 11 12 14 17 20 21
10 10 8 7 6 6 5 4 4 6 7 8 9 11 13 12 10 9 10 12 12 12 14 16 17 18 19 19 19 22 24 26 27 24 22 20 18 16 15 13 13 14 14 13 12 12 13 14 13 13 13 12 12 11 11 11 11 12 14 16 18 21 22
9 8 7 6 6 5 4 4 3 3 5 6 7 8 9 11 12 13 13 12 11 12 13 12 12 13 14 15 16 19 21 22 22 20 18 16 13 13 13 11 10 11 10 8 8 9 10 12 13 13 12 12 12 12 12 13 14 16 17 18 19 21 22
9 7 6 7 6 5 4 4 3 3 4 6 8 8 8 8 10 14 16 13 12 12 12 10 8 8 10 13 16 18 18 18 17 15 14 12 10 11 12 11 11 10 9 9 9 11 13 14 14 14 13 12 12 13 14 15 16 16 16 17 18 19 20
9 8 7 6 5 4 4 4 4 4 4 5 7 9 9 9 9 11 14 15 14 13 10 7 6 7 11 14 16 16 15 15 13 11 10 11 11 10 10 10 11 11 11 11 12 14 16 16 15 14 14 14 14 15 15 15 14 13 13 15 17 18 19
7 8 7 6 4 3 4 4 4 5 5 6 7 7 8 9 10 10 11 13 13 12 9 9 10 11 14 15 15 14 13 12 11 9 8 8 8 7 8 10 12 12 12 14 14 15 15 14 13 13 12 13 14 15 16 17 17 18 19 20 22 23 24
8 7 5 5 5 5 5 5 5 6 6 7 8 9 9 10 11 11 11 12 12 10 9 11 13 14 15 14 13 14 13 12 11 8 6 5 5 6 10 12 13 12 13 14 13 12 11 10 10 10 11 13 15 17 19 20 21 23 24 24 25 25 25
5 6 7 8 8 8 8 7 7 7 8 8 9 10 11 12 12 12 13 13 11 10 11 13 15 15 15 14 14 14 13 12 11 8 6 4 2 4 8 10 9 9 9 9 8 7 6 7 9 12 14 16 17 18 19 19 20 20 21 22 23 24 24
7 8 11 12 12 11 11 10 9 8 9 11 11 10 10 12 13 13 12 12 11 11 11 14 16 16 15 14 14 14 13 12 11 10 8 6 5 3 2 4 5 4 4 4 4 6 9 11 13 15 16 16 16 16 17 17 18 19 20 22 24 24 23
11 11 11 12 13 12 11 11 11 11 12 13 12 9 11 13 14 14 12 11 12 13 13 14 15 16 16 14 13 12 12 11 10 9 8 6 3 4 3 4 5 2 1 4 7 10 12 13 14 14 14 14 15 16 16 17 19 20 22 23 23 23 21
12 12 11 10 11 12 12 12 12 13 14 14 11 11 15 16 16 15 14 14 13 13 14 14 14 15 15 14 12 12 11 9 7 5 4 3 1 1 2 2 1 3 6 9 12 12 11 11 12 12 13 13 14 15 16 18 20 21 23 23 23 23 22
16 16 15 14 14 14 14 14 15 15 15 14 12 16 18 18 17 17 16 15 14 12 13 14 15 14 14 13 12 11 10 7 4 4 3 3 2 2 2 4 6 8 11 12 12 10 9 9 10 10 11 12 13 14 16 17 19 20 21 22 22 22 21
Wind_Direction
142 136 135 130 127 124 120 119 117 115 114 117 121 120 117 112 105 110 116 118 115 109 110 113 114 111 108 112 115 115 114 122 143 137 130 137 145 175 200 211 218 214 224 250 239 210 130 292 294 249 244 248 244 246 245 262 277 266 264 276 297 306 295
141 139 135 129 128 127 123 123 123 121 116 113 116 122 124 114 101 107 116 119 119 119 118 114 114 114 111 113 116 113 108 108 116 114 110 112 112 119 157 180 187 193 199 203 227 223 192 173 278 290 303 276 249 250 251 266 282 277 271 264 271 290 296
141 139 135 134 136 134 129 129 126 121 118 114 112 116 124 123 108 104 105 106 107 112 123 122 119 117 111 108 111 114 115 113 116 119 115 110 107 102 105 133 147 144 135 113 98 252 243 220 260 319 356 357 317 309 312 307 306 295 287 279 273 280 298
146 143 141 143 144 140 135 133 131 126 123 120 118 116 120 124 118 111 105 102 100 96 103 110 109 109 109 107 108 116 124 123 124 128 126 119 111 100 97 106 112 105 96 80 56 50 56 51 25 336 352 356 350 351 346 332 324 307 295 294 292 288 285
152 149 149 149 147 145 139 138 137 133 130 128 127 124 121 121 120 118 114 110 110 104 100 102 103 106 109 111 113 115 121 129 139 143 137 132 124 109 101 102 105 103 95 85 70 60 59 49 41 23 2 3 354 344 345 345 338 330 328 332 338 331 307
158 156 154 153 154 152 146 144 145 142 140 139 136 132 127 124 123 125 125 120 117 114 111 111 114 118 117 116 117 115 113 119 130 137 134 135 133 121 112 109 109 108 99 94 87 74 73 69 62 49 17 15 354 331 345 351 348 354 11 24 32 32 23
164 160 159 159 158 157 154 152 153 149 147 148 142 136 130 126 127 129 131 131 127 123 119 116 114 115 116 116 115 112 109 112 116 119 120 126 132 128 120 116 116 115 107 102 90 73 76 81 73 61 21 10 351 341 349 347 350 7 24 32 39 40 38
168 164 162 163 160 162 162 158 158 153 148 150 146 138 132 133 138 137 135 137 137 133 128 124 123 122 119 116 116 114 109 106 108 111 113 116 124 125 115 106 101 103 108 100 74 54 58 65 68 60 38 25 356 341 344 341 347 2 14 16 23 23 23
171 166 165 166 163 166 168 164 164 161 153 152 149 142 141 148 154 152 148 145 143 144 141 137 135 137 137 130 125 118 108 99 96 100 103 105 114 117 107 93 81 81 89 83 55 43 57 62 62 52 27 24 22 339 327 341 343 344 7 9 6 4 8
173 169 169 171 170 169 170 170 168 166 161 160 157 152 155 165 168 162 160 155 149 149 149 150 151 151 151 139 129 119 110 106 100 93 89 92 103 109 105 98 78 61 61 66 57 54 65 67 67 61 24 11 18 10 341 337 325 297 347 3 3 351 352
176 173 173 174 175 173 171 171 172 171 170 168 164 162 165 173 175 173 172 168 162 155 153 162 169 163 161 153 141 137 136 144 144 117 94 91 97 105 110 107 84 42 41 57 55 51 59 63 60 58 31 5 8 14 6 327 316 308 334 347 349 342 340
179 179 179 178 179 178 172 169 171 173 173 173 169 168 172 178 180 179 179 178 176 169 164 176 185 173 179 187 167 164 170 166 163 150 145 158 104 99 118 117 99 37 24 40 42 39 40 40 35 30 31 30 16 354 340 329 296 303 326 333 332 332 336
187 188 186 182 182 181 174 168 169 172 174 176 174 173 177 182 185 186 189 190 188 183 177 184 194 186 191 205 191 188 196 178 175 182 176 189 195 113 110 117 112 347 354 24 77 82 21 349 340 336 339 348 353 329 314 307 269 290 314 324 324 328 336
193 195 193 188 184 180 176 172 170 170 173 177 178 179 183 187 191 191 195 199 198 195 191 191 199 196 197 208 203 203 211 194 192 212 209 200 208 199 182 252 294 307 317 335 25 159 336 341 331 326 323 314 318 327 309 295 279 288 309 318 321 327 337
185 183 183 185 179 169 167 169 167 164 167 175 179 183 188 192 198 199 202 208 208 208 206 203 206 205 203 210 211 209 213 203 199 215 221 214 217 222 226 231 256 282 287 304 320 296 313 358 358 351 355 350 339 349 343 322 312 302 306 318 326 330 335
173 162 161 170 170 160 156 160 165 165 164 169 177 186 192 194 199 204 207 210 212 216 218 215 215 214 210 213 216 214 215 212 206 212 220 217 217 226 229 223 227 244 259 279 298 304 322 338 332 325 335 349 343 342 345 342 339 331 318 321 331 334 334
158 148 145 154 162 164 161 159 164 169 167 162 162 174 189 198 204 208 210 212 214 218 221 220 221 222 219 218 220 218 217 219 215 213 218 217 215 225 230 226 225 231 247 265 275 283 300 302 298 292 297 305 310 316 322 327 335 340 334 329 329 329 331
153 151 150 154 161 168 174 173 171 173 175 170 158 157 174 187 195 201 207 214 218 220 222 224 224 225 225 222 222 222 220 221 220 217 220 219 218 224 229 228 225 223 236 254 255 253 266 272 276 277 283 295 297 299 307 314 321 329 333 334 329 324 325
154 161 164 168 171 168 169 179 182 185 189 185 181 184 185 182 184 191 202 220 232 230 227 227 228 228 227 223 222 223 223 224 224 221 221 222 221 225 226 222 216 215 228 241 238 240 254 261 268 276 281 289 292 294 301 308 314 319 325 329 327 324 323
143 162 167 168 172 170 166 177 198 207 208 203 204 219 224 211 203 203 209 226 247 248 236 232 232 231 230 226 223 223 224 224 223 221 221 223 222 222 219 212 210 216 226 234 234 238 249 257 265 271 275 282 287 293 300 307 312 316 321 323 321 322 320
161 155 157 160 170 180 188 199 207 209 213 215 219 228 235 235 234 236 237 238 244 248 241 236 237 234 231 228 224 223 224 222 221 219 219 220 218 218 220 221 224 225 226 232 238 242 248 254 257 263 277 286 288 291 297 303 311 316 321 322 320 321 322
148 138 134 137 146 162 178 189 195 200 206 214 222 230 234 235 237 242 244 240 238 239 238 238 241 237 233 229 225 223 223 221 219 216 214 213 213 215 221 228 231 229 229 236 243 247 250 251 253 271 288 291 288 290 294 298 309 320 324 324 321 323 324
141 144 142 141 146 152 158 167 181 195 204 212 222 231 234 233 235 240 241 239 241 243 241 241 244 241 237 232 225 221 221 220 217 214 209 206 207 211 216 221 223 226 233 241 245 248 252 254 263 279 289 289 286 290 293 298 311 323 324 319 317 319 318
147 152 151 151 159 161 162 169 178 188 201 214 221 225 231 235 238 243 246 247 250 251 249 250 251 250 247 240 229 223 221 218 215 211 207 206 209 212 213 216 220 229 239 246 249 254 258 263 272 281 286 285 285 284 285 291 303 312 312 307 307 308 304
157 157 156 159 166 167 171 182 192 201 210 217 219 222 230 236 239 244 248 251 256 258 259 260 260 259 258 251 239 229 223 217 212 208 207 209 212 212 212 217 224 232 239 245 250 255 260 266 273 279 283 283 277 272 274 279 287 296 300 299 297 297 296
161 159 157 158 165 170 182 193 203 219 227 227 225 225 229 235 242 246 248 253 261 264 262 261 260 260 260 256 245 233 224 217 211 208 207 208 209 208 208 213 222 231 238 242 247 252 257 264 271 275 278 278 274 270 271 273 282 291 295 294 292 294 299
156 157 161 164 168 176 194 206 206 219 228 227 226 224 220 220 223 232 245 255 263 267 264 260 260 258 257 254 242 227 217 211 206 202 200 199 199 200 203 210 221 229 234 240 247 253 256 262 269 272 271 267 264 264 266 273 282 289 292 294 293 294 300
159 164 170 169 172 180 194 211 218 226 232 231 234 236 229 225 228 234 244 254 261 266 266 266 267 263 256 245 227 214 207 200 193 189 186 186 191 199 205 212 218 217 219 235 253 259 260 262 265 265 262 258 260 264 268 276 286 290 293 294 293 295 299
173 177 177 176 182 182 185 201 211 222 242 239 238 248 253 253 250 241 234 235 245 254 261 267 268 257 239 222 208 198 190 182 178 181 181 181 193 205 210 219 226 230 242 262 270 269 268 268 267 266 263 263 268 272 276 282 288 291 293 290 288 290 293
173 178 182 186 191 189 189 208 222 229 249 252 243 246 253 263 269 249 229 224 230 235 237 238 234 215 202 198 193 186 181 177 178 187 192 191 197 204 213 231 247 259 266 266 261 259 260 260 258 258 261 266 272 275 278 282 283 282 281 279 278 280 282
188 190 190 191 201 213 215 226 239 242 253 262 257 252 250 253 258 253 237 227 224 222 215 206 201 195 191 189 186 181 180 177 172 174 186 195 205 220 238 249 256 258 255 251 249 248 249 249 250 257 266 274 280 283 285 289 289 288 287 285 284 283 282
192 187 191 213 235 243 238 236 243 250 257 263 261 257 253 249 244 237 231 227 221 214 206 198 197 197 194 193 194 190 184 177 166 159 165 181 207 244 253 253 253 252 246 243 243 243 246 253 265 278 287 294 298 299 300 302 302 302 301 300 300 299 298
214 222 240 250 246 235 234 239 246 251 255 263 268 259 247 240 230 216 213 215 212 206 203 196 193 197 199 200 202 200 192 185 177 168 161 149 157 238 247 245 245 242 235 233 238 250 271 288 298 304 308 309 310 311 311 312 311 311 312 311 311 312 311
277 265 255 245 231 227 234 238 244 254 259 267 275 262 233 219 208 196 194 198 194 191 195 193 190 194 201 204 205 205 199 192 187 181 170 145 111 100 175 202 203 207 213 232 275 302 311 313 314 315 317 318 320 324 325 323 321 319 316 313 312 312 312
272 273 264 240 221 220 226 229 242 260 267 271 271 240 203 193 184 174 171 174 177 179 183 190 193 196 200 203 204 206 202 194 189 186 182 172 130 72 82 144 158 171 260 306 319 320 320 321 324 328 332 333 333 334 330 324 319 315 311 310 310 309 307
270 276 277 258 236 231 233 239 251 259 262 268 254 204 182 177 169 162 159 162 171 179 183 189 196 197 197 198 199 200 198 194 192 197 209 219 218 34 50 126 168 302 307 317 325 326 325 329 335 341 342 339 336 332 325 319 316 314 312 310 306 301 297
283 281 279 274 264 252 245 246 247 245 249 251 222 183 170 168 163 158 156 159 170 182 186 187 192 193 190 189 189 189 191 196 216 236 248 260 250 249 282 294 300 304 310 319 325 323 320 326 331 334 335 334 332 329 326 324 323 321 315 309 301 294 293